Weather History for Springfield, OH

Change the Weather History Date:

Thursday, November 22, 2012

  Actual Average (KDAY) Record (KDAY)
Temperature  
Mean Temperature 45 °F 40 °F  
Max Temperature 61 °F 48 °F 74 °F (1900)
Min Temperature 29 °F 32 °F 8 °F (1964)
Degree Days  
Heating Degree Days 20 25  
Month to date heating degree days 448  
Since 1 July heating degree days 895  
Cooling Degree Days 0 0  
Month to date cooling degree days 0  
Year to date cooling degree days 891  
Moisture  
Dew Point 34 °F    
Average Humidity 65    
Maximum Humidity 92    
Minimum Humidity 39    
Precipitation  
Precipitation 0.00 in 0.13 in 1.54 in (1920)
Month to date precipitation 2.47  
Year to date precipitation 37.01  
Snow  
Snow 0.00 in 0.00 in 0.80 in (1967)
Month to date snowfall 0.3  
Since 1 July snowfall 0.7  
Since 1 September snowfall 0.7  
Snow Depth -    
Sea Level Pressure  
Sea Level Pressure 30.15 in    
Wind  
Wind Speed 6 mph (South)    
Max Wind Speed 15 mph    
Max Gust Speed -    
Visibility 6 miles    
Events      
T = Trace of Precipitation, MM = Missing Value Source: NWS Daily Summary

Daily Weather History Graph

Daily Weather History Graph

Search for Another Location

Airport:

Trip Planner

Search our weather history database for the weather conditions in past years. The results will help you decide how hot, cold, wet, or windy it might be!

Date:

Astronomy

Nov. 22, 2012 Rise Set
Actual Time 7:28 AM EST 5:14 PM EST
Civil Twilight 6:59 AM EST 5:43 PM EST
Nautical Twilight 6:26 AM EST 6:16 PM EST
Astronomical Twilight 5:53 AM EST 6:49 PM EST
Moon 1:59 PM EST (11/22) 1:48 AM EST (11/22)
Length of Visible Light 10h 44m
Length of Day
9h 45m
Waxing Gibbous, 71% of the Moon is Illuminated
Nov 22
Waxing Gibbous
Nov 28
Full
Dec 6
Last Quarter
Dec 13
New
Dec 20
First Quarter

Hourly Weather History & Observations

Time (EST) Temp. Windchill Dew Point Humidity Pressure Visibility Wind Dir Wind Speed Gust Speed Precip Events Conditions
12:56 AM 31.1 °F 27.7 °F 28.0 °F 88% 30.23 in 4.0 mi SE 3.5 mph - N/A   Clear
1:56 AM 32.0 °F - 30.0 °F 92% 30.23 in 3.0 mi Calm Calm - N/A   Clear
2:56 AM 32.0 °F 28.7 °F 28.0 °F 85% 30.24 in 4.0 mi South 3.5 mph - N/A   Clear
3:56 AM 29.1 °F 25.4 °F 26.1 °F 88% 30.23 in 4.0 mi South 3.5 mph - N/A   Clear
4:56 AM 29.1 °F 24.1 °F 27.1 °F 92% 30.23 in 4.0 mi South 4.6 mph - N/A   Clear
5:56 AM 29.1 °F 24.1 °F 26.1 °F 88% 30.24 in 5.0 mi SSE 4.6 mph - N/A   Clear
6:56 AM 31.1 °F 27.7 °F 28.0 °F 88% 30.24 in 5.0 mi South 3.5 mph - N/A   Clear
7:56 AM 39.9 °F 35.8 °F 32.0 °F 73% 30.24 in 5.0 mi South 5.8 mph - N/A   Haze
8:56 AM 45.9 °F 42.3 °F 34.9 °F 66% 30.23 in 6.0 mi South 6.9 mph - N/A   Haze
9:56 AM 50.9 °F - 36.9 °F 59% 30.23 in 6.0 mi SSW 8.1 mph - N/A   Haze
10:56 AM 54.9 °F - 37.9 °F 53% 30.22 in 7.0 mi SSW 9.2 mph - N/A   Clear
11:56 AM 57.9 °F - 36.9 °F 45% 30.18 in 7.0 mi SSW 15.0 mph - N/A   Clear
12:56 PM 59.9 °F - 36.9 °F 42% 30.15 in 7.0 mi SSW 12.7 mph - N/A   Clear
1:56 PM 61.9 °F - 36.9 °F 39% 30.13 in 7.0 mi SW 15.0 mph - N/A   Clear
2:56 PM 61.9 °F - 36.9 °F 39% 30.10 in 7.0 mi SSW 10.4 mph - N/A   Clear
3:56 PM 59.9 °F - 36.9 °F 42% 30.11 in 7.0 mi SSW 10.4 mph - N/A   Clear
4:56 PM 55.9 °F - 36.9 °F 49% 30.10 in 7.0 mi South 5.8 mph - N/A   Clear
5:56 PM 54.0 °F - 36.9 °F 52% 30.08 in 8.0 mi South 6.9 mph - N/A   Clear
6:56 PM 52.0 °F - 36.9 °F 56% 30.07 in 8.0 mi South 5.8 mph - N/A   Scattered Clouds
7:56 PM 52.0 °F - 37.9 °F 59% 30.06 in 8.0 mi South 6.9 mph - N/A   Clear
8:56 PM 52.0 °F - 37.9 °F 59% 30.04 in 8.0 mi South 8.1 mph - N/A   Clear
9:56 PM 48.9 °F - 36.9 °F 63% 30.04 in 8.0 mi SSW 9.2 mph - N/A   Clear
10:56 PM 50.0 °F - 37.9 °F 63% 30.01 in 8.0 mi SSW 6.9 mph - N/A   Clear
11:56 PM 47.8 °F - 37.9 °F 69% 30.01 in 8.0 mi SSW 8.1 mph - N/A   Clear